Location: Unspecified
(0.0000°N, 0.0000°E)
Time: 21:42:04
(UTC+00:00)

Transit 4A - Pass Details

Date: 01 May 2024
Orbit: 871 x 971 km, 66.8° (Epoch: 22 May)

Event Time Altitude Azimuth Distance (km) Brightness Sun altitude
Rises 07:40:04 0° 175° (S) 3,625 10.9 24.8°
Reaches altitude 10° 07:43:10 10° 161° (SSE) 2,662 10.4 25.5°
Maximum altitude 07:47:58 23° 110° (ESE) 1,851 10.6 26.7°
Drops below altitude 10° 07:52:38 10° 59° (ENE) 2,601 11.8 27.8°
Sets 07:55:37 0° 46° (NE) 3,522 11.9 28.5°
